Flock 4q-13

operational
NORAD ID: 58328 Int'l Des: 2023-174 Owner: PLAN Country: US Constellation: planet
LEOCIRCULARRETROGRADESSO

About Flock 4q-13

Description loading...

Live Position

Loading 3D Globe...

Upcoming Passes

Altitude History

Altitude vs Time

uPlot chart will show altitude changes over time

Two-Line Element Set

1 58328U 23174CA 26062.19709037 .00032260 00000-0 64927-3 0 9999
2 58328 97.4031 150.2994 0007491 172.0588 188.0782 15.46511262129261
Epoch: Mar 3, 2026 • Age: 24 hours

Current Status

Altitude 433.4 km
Velocity 7.66 km/s
Sub-Earth Point 58.77°N, 176.61°W
Launch Date Nov 11, 2023
Age 2.3 years
Type earth observation

Technical Details

Classification Payload
Mass 5.70 kg
Dry Mass 5.70 kg
Total Mass 5.70 kg
Length 0.30 m
Diameter 0.10 m
Span 0.30 m
Shape Box+2 pan
Manufacturer PLAN
Bus Type Cubesat 3U
Phase Status In Orbit
Owner/State PLAN/US

Large Constellations

Loading constellations...